Find Starlink 6380

NORAD ID: 57344 Int'l Des: 2023-099 Owner: SPXS Country: US Constellation: starlink operational
LEOCIRCULAR

リアルタイム位置

3D地球を読み込み中...

Starlink 6380について

説明を読み込み中...

次回通過

Passes for default location (London). Set your location on the main map for personalized predictions.

高度履歴

Loading altitude history...

軌道要素

1 57344U 23099S 26124.49114723 .00001508 00000-0 64321-4 0 9996
2 57344 43.0014 296.9920 0001363 266.5448 93.5248 15.27577496154613
Epoch: May 4, 2026 • Age: 4 hours

現在のステータス

高度 495.0 km
速度 7.62 km/s
衛星直下点 -41.94°S, 117.67°E
打ち上げ日 Jul 16, 2023
運用期間 2.8 years
タイプ internet

技術仕様

分類 Payload
質量 305.00 kg
乾燥質量 290.00 kg
総質量 305.00 kg
長さ 0.20 m
直径 2.80 m
スパン 9.00 m
形状 Box + pan
製造者 SPXS
バスタイプ Starlink
フェーズステータス In Orbit
所有者/国 SPXS/US

Most Searched